Theta_e
299 299 300 301 300 300 301 302 302 300 299 298 298 299 300 300 300 300 300 300 299 298 296 295 295 295 295 295 295 296 295 295 294 293 292 291 291 290 291 290 290 290 290
293 296 296 296 299 299 299 299 300 302 302 300 298 297 298 299 299 299 299 299 299 298 296 295 294 294 294 294 294 295 295 295 294 293 292 291 290 289 289 290 290 289 290
291 291 291 293 294 295 296 296 297 299 300 300 301 300 298 297 296 297 299 298 298 299 297 296 294 293 293 293 294 294 295 294 294 293 291 290 289 289 289 289 289 289 289
287 288 289 289 289 291 292 293 295 295 297 299 300 299 298 297 296 296 295 296 297 297 296 296 295 294 294 293 293 293 294 294 294 292 290 289 289 288 288 288 288 289 289
287 286 286 286 287 287 287 288 289 292 294 296 297 298 299 297 296 296 295 294 294 295 297 297 296 294 293 293 293 293 293 293 293 292 290 289 288 288 288 289 288 289 289
286 286 286 286 286 286 286 286 287 287 288 291 295 296 298 298 297 295 293 293 293 293 294 295 295 296 295 293 292 291 292 293 293 292 291 291 290 289 288 288 288 289 288
286 286 286 286 286 286 285 285 285 285 286 287 288 291 295 297 297 295 292 292 291 292 292 293 294 295 294 293 292 291 291 291 291 292 292 292 290 289 288 288 288 288 287
285 285 285 285 285 286 285 285 285 285 285 285 285 286 287 291 294 292 292 289 292 292 292 291 292 293 294 293 291 291 290 290 290 289 288 289 288 288 287 287 287 286 285
285 285 284 284 285 285 285 285 285 285 285 285 285 285 285 287 289 294 289 290 290 291 290 291 290 291 291 292 292 291 290 290 289 288 288 287 286 285 285 285 285 284 283
284 283 283 283 283 283 284 285 285 285 285 284 285 285 284 285 286 289 292 287 288 288 288 288 289 289 287 289 287 288 288 289 288 287 286 286 285 284 284 284 284 283 282
280 280 281 282 281 282 282 283 284 284 284 284 284 284 284 284 285 286 291 290 287 287 287 286 287 287 286 285 287 286 287 287 287 287 286 285 283 282 283 283 283 281 281
277 277 276 277 278 279 279 280 281 281 282 283 283 284 284 284 284 285 287 291 288 286 286 286 285 285 285 286 285 284 285 285 286 285 284 283 283 283 285 282 281 280 280
275 275 274 273 272 273 273 274 274 277 278 280 280 281 282 283 283 284 285 288 290 286 286 287 286 285 285 283 283 284 284 283 284 284 283 282 283 286 283 280 279 278 279
271 271 271 269 269 269 269 269 270 271 273 274 276 278 280 280 282 283 284 286 288 287 285 286 286 284 284 284 283 283 283 283 283 284 282 282 284 282 280 279 279 278 278
267 266 265 265 265 266 266 266 267 268 270 271 273 274 277 279 280 281 282 283 286 287 285 285 284 283 284 282 282 284 281 281 281 281 281 283 284 280 280 279 278 277 276
263 263 263 263 263 263 264 264 266 267 269 271 272 274 276 277 279 281 281 281 283 283 284 283 282 282 284 282 282 282 280 279 279 279 280 285 280 280 279 278 276 276 276
263 262 262 262 263 263 263 264 264 265 267 269 271 273 275 276 279 281 282 282 282 282 283 282 282 281 283 282 282 281 278 279 280 280 282 281 280 278 277 277 276 275 275
263 263 263 263 263 263 263 263 264 265 265 266 269 270 273 277 279 281 282 282 282 282 284 281 281 281 282 281 281 279 279 280 281 281 280 280 279 279 278 276 275 274 274
264 264 264 264 264 264 264 264 264 265 265 266 268 270 273 275 278 279 281 283 282 282 283 281 281 281 281 280 280 279 280 280 281 280 280 279 278 277 275 275 274 274 274
264 264 264 265 265 265 265 265 265 266 266 267 268 270 274 276 277 279 282 283 282 282 283 280 280 280 281 281 279 279 279 280 280 279 278 278 276 274 274 274 274 273 272
264 264 265 266 266 267 267 267 268 268 269 270 271 273 275 276 277 278 281 282 282 281 282 280 279 280 280 280 279 278 279 279 279 278 277 275 275 275 274 272 272 272 272
264 266 266 267 267 268 269 270 270 271 272 273 273 274 275 276 277 279 281 281 281 280 280 280 280 280 280 280 279 278 278 278 277 276 275 274 274 273 272 272 271 271 271
266 266 267 268 268 269 270 271 272 273 273 273 274 274 275 276 277 279 280 280 280 279 279 279 279 279 279 278 277 276 276 276 276 275 275 274 273 272 271 271 271 270 270
267 267 267 268 269 269 269 270 271 272 273 273 273 274 275 276 277 278 278 278 278 277 277 277 277 278 278 276 275 275 275 275 274 274 273 273 271 270 270 270 270 270 269
267 267 267 268 269 270 270 270 270 271 272 272 272 273 273 275 276 276 276 275 275 275 275 275 276 275 274 274 274 274 274 273 273 273 272 270 270 270 270 270 269 269 269
268 268 268 268 269 270 270 271 270 270 270 271 271 272 272 273 274 274 274 274 274 274 274 273 273 273 273 273 272 272 273 273 271 270 270 270 270 269 269 269 269 268 268
Wind_Speed
25 25 24 25 25 24 24 21 20 21 21 22 26 29 31 36 40 48 57 57 58 57 58 57 55 53 50 48 44 39 36 34 31 29 28 28 28 26 22 18 14 13 14
26 24 24 23 23 26 27 25 24 21 22 25 26 29 32 34 38 43 50 58 60 60 61 59 58 57 54 51 49 44 41 38 36 34 30 30 31 28 24 21 17 15 15
24 26 25 24 24 25 26 27 28 26 25 20 23 29 33 35 39 43 45 51 59 59 62 61 60 60 58 56 53 49 45 41 39 37 35 34 34 31 27 24 20 16 16
29 26 28 29 27 25 25 27 27 27 27 28 27 24 26 31 36 40 46 49 53 57 62 62 62 64 61 60 57 54 49 46 45 42 40 37 36 33 30 26 24 18 19
32 32 31 29 31 31 30 28 28 27 27 27 29 29 28 30 34 36 41 46 52 55 57 61 64 65 64 62 61 60 55 51 49 46 46 42 39 37 34 30 27 23 22
28 30 33 37 36 32 33 33 33 33 32 30 31 30 30 32 33 34 36 39 45 53 57 59 64 65 67 65 63 61 57 55 54 52 49 47 43 40 36 32 28 24 22
27 29 33 35 39 42 38 36 37 37 37 36 35 36 35 32 30 32 34 38 39 47 54 57 61 65 68 66 65 62 59 56 54 52 51 48 44 41 36 34 31 28 23
31 32 34 36 39 41 43 44 41 41 42 41 41 39 40 40 36 29 29 36 41 44 49 53 59 62 67 68 68 65 65 61 59 55 50 44 40 38 36 32 29 26 24
39 40 39 39 41 41 43 46 49 49 47 46 45 44 42 43 40 38 29 32 40 46 48 50 55 60 65 63 66 68 66 65 61 57 52 48 44 41 34 32 30 28 24
47 45 45 44 43 45 45 45 48 52 54 52 51 50 46 45 42 39 37 33 39 45 48 52 55 58 60 60 58 65 69 69 64 59 52 48 44 41 39 36 32 28 25
47 50 51 52 53 53 53 50 50 52 56 59 58 55 52 48 45 41 39 37 41 43 46 51 55 55 55 54 52 59 66 65 61 56 51 48 46 41 39 40 35 30 26
46 50 52 57 61 61 62 61 58 56 56 58 61 62 58 53 48 43 40 41 37 43 46 47 48 49 47 51 46 52 54 58 58 55 53 51 49 44 40 38 33 29 26
58 61 59 57 57 59 60 61 58 60 57 58 56 57 60 55 50 45 41 39 35 41 47 51 48 46 40 40 43 52 45 55 57 56 56 53 48 40 41 34 30 28 26
58 60 57 51 50 48 48 46 43 46 48 49 47 48 46 46 51 46 44 38 32 35 43 47 49 42 36 39 41 48 50 55 56 56 55 50 40 43 38 33 30 28 25
51 49 46 43 43 42 41 41 40 41 40 42 44 42 40 40 44 32 34 35 29 29 35 41 44 43 38 38 41 51 52 53 52 52 51 45 44 40 34 32 30 29 27
43 41 40 41 42 42 41 44 40 39 40 42 44 45 50 47 43 37 33 32 25 23 31 42 41 42 41 41 43 47 48 49 47 50 46 42 43 39 37 33 30 28 25
41 42 41 40 40 41 41 41 44 41 34 35 37 39 41 46 40 39 38 33 28 25 40 43 41 41 39 41 43 49 48 47 46 44 43 43 42 38 33 31 29 27 24
37 39 40 40 40 40 40 40 40 39 40 38 33 31 31 30 32 35 33 33 30 29 39 42 40 39 38 45 46 46 46 48 44 43 41 41 41 38 34 31 28 24 20
37 38 38 39 40 41 42 42 41 40 38 39 37 28 23 24 26 28 27 36 32 31 34 42 38 37 41 44 49 49 50 46 43 42 42 40 38 35 31 28 25 21 19
36 36 35 37 38 39 38 37 37 37 36 34 32 27 17 18 19 20 25 34 30 29 30 39 38 39 39 40 45 46 47 47 44 42 38 36 31 28 26 22 21 18 16
32 34 33 33 33 34 34 35 34 33 32 29 25 19 19 20 20 16 19 30 28 24 31 37 38 36 34 38 40 42 44 46 41 37 35 31 28 24 21 20 18 17 15
27 27 26 26 27 27 28 29 29 29 28 25 23 22 17 16 16 15 17 22 22 22 27 34 32 32 32 34 35 36 41 38 35 34 30 25 22 21 20 18 16 15 14
22 22 22 21 21 21 20 19 16 14 14 14 14 13 9 7 7 13 15 17 15 15 17 24 28 29 29 26 23 27 33 34 32 28 24 21 19 18 18 16 15 13 12
19 19 19 19 19 19 19 19 17 14 12 10 8 5 2 3 10 10 10 10 12 15 19 21 22 22 19 18 21 25 26 25 23 20 18 17 18 18 17 15 14 11 12
18 19 19 19 19 19 20 19 18 16 15 13 10 8 7 8 9 7 8 10 13 17 20 20 19 19 22 25 26 25 24 21 18 17 16 17 16 15 14 13 12 12 14
22 20 20 20 20 20 21 21 20 19 17 16 14 12 12 13 14 14 16 18 20 21 22 23 24 24 24 23 22 19 17 15 16 17 16 15 14 13 13 11 10 13 16
Wind_Direction
358 360 355 352 353 356 357 341 319 302 290 279 275 273 268 265 257 249 248 244 241 240 238 236 234 233 231 231 230 230 231 232 229 228 222 226 223 223 232 234 238 248 262
357 353 351 348 345 345 346 348 347 328 303 292 281 273 267 262 263 259 252 247 243 240 240 237 235 233 232 231 231 230 231 232 232 234 228 224 223 228 233 234 237 244 255
350 348 346 343 344 341 338 338 337 335 333 314 286 279 274 267 262 260 259 255 249 246 244 242 239 237 233 232 231 230 230 230 232 233 230 227 228 230 232 237 239 244 256
347 347 343 341 342 338 334 331 327 327 328 328 322 302 280 274 267 262 261 258 256 250 246 244 242 241 238 236 233 233 230 229 229 230 230 229 228 228 228 234 238 239 252
335 339 340 339 336 335 333 332 327 320 319 318 317 317 312 290 276 269 263 262 259 255 251 247 244 242 241 240 238 235 231 229 227 228 228 227 226 228 229 232 236 239 247
322 325 327 329 330 333 333 330 326 325 324 316 309 307 306 309 297 279 273 267 263 258 254 251 247 244 242 240 239 239 240 235 231 228 228 231 231 232 231 232 237 243 248
313 316 318 319 320 323 327 327 328 327 323 318 314 308 301 297 301 293 277 271 265 262 259 255 251 248 245 241 238 236 238 237 239 241 235 235 234 233 233 234 236 239 241
302 304 308 308 309 313 316 318 320 320 321 320 316 310 305 299 297 294 280 267 264 260 258 257 254 252 249 242 238 235 233 233 232 233 233 237 238 237 234 234 233 237 236
303 302 302 301 301 301 303 307 310 312 312 312 312 310 305 299 298 293 283 266 261 259 257 254 253 252 251 248 242 237 234 233 230 231 229 229 227 231 230 229 228 228 232
308 304 303 300 298 297 297 297 300 303 305 306 304 303 305 301 296 291 286 263 260 257 255 253 251 249 248 248 242 238 234 231 226 224 223 225 227 228 231 232 230 226 228
306 304 301 299 299 296 295 293 293 294 296 298 299 298 298 300 295 290 282 271 255 251 247 246 248 246 242 240 245 241 239 233 229 228 224 221 221 220 224 228 226 227 226
302 301 300 299 298 296 295 293 291 291 289 289 292 294 293 294 294 288 282 275 260 250 246 245 245 247 242 239 233 234 234 231 228 222 219 218 218 218 227 226 225 229 229
299 298 298 297 295 295 293 292 292 289 287 284 285 286 287 288 290 288 280 276 273 246 246 246 245 247 244 219 215 223 226 225 226 218 217 216 216 223 222 219 223 227 233
297 296 295 294 293 290 288 287 284 283 283 281 279 278 278 282 284 283 280 276 268 256 243 248 240 236 233 226 222 215 214 220 221 220 216 215 218 220 214 215 222 229 235
300 297 296 294 293 291 287 284 280 277 273 272 270 270 273 273 273 273 275 274 272 262 243 237 231 230 232 214 214 211 207 210 210 212 209 208 216 212 211 213 219 226 230
306 301 298 296 294 292 290 289 285 278 275 270 267 265 269 268 269 266 263 266 265 256 234 224 216 220 225 206 202 204 202 205 205 207 204 213 210 208 206 209 217 224 232
304 301 298 295 293 290 289 287 288 292 282 274 270 266 263 265 261 259 262 260 262 243 229 221 216 214 218 202 199 204 195 207 208 203 210 204 206 202 203 210 217 225 230
312 309 303 298 294 291 289 287 287 286 288 289 284 276 266 262 257 252 253 254 252 233 228 215 215 215 212 201 200 201 200 202 203 204 201 202 202 205 202 207 216 223 232
314 312 310 305 302 297 294 290 286 285 284 285 294 292 281 263 258 257 247 234 244 233 225 214 214 208 206 202 206 207 208 200 202 200 202 202 202 199 201 208 215 226 235
314 309 309 308 306 302 298 291 289 287 287 287 287 288 297 284 274 267 235 226 235 234 223 207 205 204 212 214 208 210 207 204 204 204 201 199 194 198 204 213 219 227 240
319 316 319 316 314 312 308 303 302 301 297 300 298 299 286 282 283 270 245 219 230 230 212 203 200 207 219 217 214 213 210 206 205 204 199 196 197 201 205 210 220 231 245
318 322 326 327 328 326 320 313 305 302 307 305 307 298 295 283 266 262 220 206 221 228 216 210 212 216 218 218 217 215 209 204 199 196 191 191 193 197 209 215 223 235 252
337 338 340 343 344 342 338 337 332 323 314 307 305 301 308 300 255 225 223 223 231 225 216 209 210 208 210 212 212 209 201 193 190 188 187 189 196 205 212 217 227 241 262
355 356 356 358 360 2 3 3 3 1 356 351 349 343 328 175 173 178 191 196 191 182 182 188 190 193 193 186 178 176 177 175 174 179 187 191 199 206 215 222 235 255 278
15 16 17 17 18 19 21 25 27 27 27 30 38 54 81 112 111 123 144 153 158 158 158 161 161 158 158 160 162 164 165 168 175 179 185 195 203 212 220 231 243 263 281
34 35 35 37 37 36 35 36 37 37 41 48 58 72 89 98 102 113 121 128 131 133 134 136 138 144 148 148 149 160 168 171 177 184 191 197 208 217 227 243 258 277 286